Weather History for Wright-Patt AFB, OH

Change the Weather History Date:

Sunday, March 31, 2013

  Actual Average Record
Temperature  
Mean Temperature 51 °F -  
Max Temperature 58 °F 56 °F 77 °F (1998)
Min Temperature 44 °F 35 °F 24 °F (2011)
Degree Days  
Heating Degree Days 14    
Growing Degree Days 1 (Base 50)    
Moisture  
Dew Point 41 °F    
Average Humidity 74    
Maximum Humidity 100    
Minimum Humidity 46    
Precipitation  
Precipitation 0.05 in - - ()
Sea Level Pressure  
Sea Level Pressure 29.82 in    
Wind  
Wind Speed 7 mph (SW)    
Max Wind Speed 21 mph    
Max Gust Speed 30 mph    
Visibility 8 miles    
Events Rain    
Averages and records for this station are not official NWS values.
T = Trace of Precipitation, MM = Missing Value Source: NWS Daily Summary

Daily Weather History Graph

Daily Weather History Graph

Search for Another Location

Airport:

Trip Planner

Search our weather history database for the weather conditions in past years. The results will help you decide how hot, cold, wet, or windy it might be!

Date:

Astronomy

Mar. 31, 2013 Rise Set
Actual Time 7:21 AM EDT 7:59 PM EDT
Civil Twilight 6:54 AM EDT 8:26 PM EDT
Nautical Twilight 6:22 AM EDT 8:59 PM EDT
Astronomical Twilight 5:49 AM EDT 9:32 PM EDT
Moon 12:03 AM EDT (3/31) 10:08 AM EDT (3/31)
Length of Visible Light 13h 32m
Length of Day
12h 38m
Waning Gibbous, 78% of the Moon is Illuminated
Mar 31
Waning Gibbous
Apr 3
Last Quarter
Apr 10
New
Apr 18
First Quarter
Apr 25
Full

Hourly Weather History & Observations

Time (EDT) Temp. Windchill Dew Point Humidity Pressure Visibility Wind Dir Wind Speed Gust Speed Precip Events Conditions
12:55 AM 47.8 °F - 31.5 °F 53% 29.93 in 9.0 mi SE 5.8 mph - N/A   Mostly Cloudy
1:55 AM 44.8 °F - 31.3 °F 59% 29.92 in 7.0 mi Calm Calm - N/A   Mostly Cloudy
2:35 AM 44.6 °F 43.1 °F 32.0 °F 61% 29.89 in 7.0 mi ESE 3.5 mph - N/A   Mostly Cloudy
2:55 AM 45.7 °F 44.4 °F 31.5 °F 58% 29.88 in 7.0 mi SSE 3.5 mph - N/A   Overcast
3:55 AM 46.0 °F - 31.8 °F 58% 29.87 in 10.0 mi Calm Calm - N/A   Mostly Cloudy
4:55 AM 45.3 °F 44.0 °F 34.9 °F 67% 29.85 in 9.0 mi ESE 3.5 mph - N/A Rain Light Rain
5:55 AM 44.6 °F 42.2 °F 41.7 °F 90% 29.84 in 6.0 mi South 4.6 mph - 0.02 in Rain Light Rain
6:55 AM 45.0 °F 43.5 °F 43.9 °F 96% 29.83 in 6.0 mi SSE 3.5 mph - 0.03 in Rain Light Rain
7:17 AM 44.6 °F 42.2 °F 44.6 °F 100% 29.82 in 6.0 mi ESE 4.6 mph - N/A   Overcast
7:55 AM 45.0 °F - 44.2 °F 97% 29.83 in 5.0 mi Calm Calm - 0.00 in   Overcast
8:55 AM 45.9 °F - 45.3 °F 98% 29.83 in 4.0 mi Calm Calm - N/A   Overcast
9:55 AM 46.9 °F - 45.9 °F 96% 29.81 in 6.0 mi South 4.6 mph - 0.00 in Rain Light Rain
10:09 AM 46.4 °F 43.5 °F 44.6 °F 93% 29.82 in 7.0 mi SW 5.8 mph - N/A Rain Light Rain
10:33 AM 46.4 °F 42.4 °F 44.6 °F 93% 29.82 in 7.0 mi SW 8.1 mph - N/A Rain Light Rain
10:55 AM 46.9 °F - 44.4 °F 91% 29.82 in 7.0 mi SW 8.1 mph - 0.00 in   Overcast
11:17 AM 48.2 °F - 44.6 °F 87% 29.81 in 7.0 mi SW 8.1 mph - N/A   Overcast
11:50 AM 48.2 °F - 44.6 °F 87% 29.82 in 7.0 mi SW 6.9 mph - N/A   Overcast
11:55 AM 48.9 °F - 44.8 °F 86% 29.82 in 7.0 mi SW 9.2 mph - N/A   Overcast
12:10 PM 50.0 °F - 44.6 °F 82% 29.83 in 7.0 mi SW 10.4 mph - N/A Rain Light Rain
12:28 PM 50.0 °F - 46.4 °F 87% 29.82 in 7.0 mi SSW 8.1 mph - N/A   Overcast
12:55 PM 50.2 °F - 45.5 °F 84% 29.81 in 7.0 mi SW 9.2 mph - 0.00 in Rain Light Rain
1:55 PM 50.2 °F - 44.1 °F 79% 29.81 in 10.0 mi SW 15.0 mph - 0.00 in   Overcast
2:55 PM 50.5 °F - 44.1 °F 78% 29.80 in 10.0 mi SW 16.1 mph - N/A   Overcast
3:11 PM 51.8 °F - 44.6 °F 76% 29.79 in 10.0 mi SW 13.8 mph - N/A   Mostly Cloudy
3:49 PM 55.4 °F - 42.8 °F 63% 29.77 in 10.0 mi WSW 12.7 mph 19.6 mph N/A   Mostly Cloudy
3:55 PM 55.4 °F - 43.0 °F 63% 29.77 in 10.0 mi WSW 16.1 mph 19.6 mph N/A   Mostly Cloudy
4:09 PM 55.4 °F - 42.8 °F 63% 29.77 in 10.0 mi SSW 12.7 mph - N/A   Scattered Clouds
4:55 PM 57.7 °F - 40.8 °F 53% 29.76 in 10.0 mi SSW 15.0 mph 23.0 mph N/A   Scattered Clouds
5:55 PM 58.1 °F - 37.4 °F 46% 29.76 in 10.0 mi WSW 11.5 mph - N/A   Scattered Clouds
6:55 PM 56.5 °F - 36.3 °F 47% 29.77 in 10.0 mi WSW 17.3 mph - N/A   Scattered Clouds
7:55 PM 52.7 °F - 36.9 °F 55% 29.78 in 10.0 mi SW 13.8 mph - N/A   Scattered Clouds
8:55 PM 46.9 °F - 37.6 °F 70% 29.78 in 10.0 mi SSW 9.2 mph - N/A   Partly Cloudy
9:55 PM 49.1 °F - 39.2 °F 69% 29.78 in 10.0 mi SW 10.4 mph - N/A   Mostly Cloudy
10:05 PM 51.8 °F - 39.2 °F 62% 29.81 in 10.0 mi West 17.3 mph - N/A Rain Light Rain
10:10 PM 51.8 °F - 41.0 °F 67% 29.81 in 10.0 mi West 20.7 mph 29.9 mph N/A Rain Light Rain
10:30 PM 50.0 °F - 41.0 °F 71% 29.80 in 10.0 mi WSW 11.5 mph - N/A   Mostly Cloudy
10:55 PM 49.6 °F - 41.2 °F 73% 29.80 in 10.0 mi WSW 12.7 mph - 0.00 in   Overcast
11:55 PM 48.9 °F - 39.9 °F 71% 29.78 in 10.0 mi WSW 13.8 mph - N/A   Partly Cloudy